768 
ASUS46 KSEW 222310
RWRWA 

WASHINGTON REGIONAL WEATHER ROUNDUP
NATIONAL WEATHER SERVICE SEATTLE WA
400 PM PDT WED OCT 22 2014

NOTE:"FAIR" INDICATES FEW OR NO CLOUDS BELOW 12,000 FEET WITH NO 
SIGNIFICANT WEATHER AND/OR OBSTRUCTIONS TO VISIBILITY.

WAZ505-507>509-230000-
SEATTLE, TACOMA, EVERETT, AND VICINITY
  
CITY           SKY/WX    TMP DP  RH WIND       PRES   REMARKS
EVERETT        LGT RAIN  55  52  89 SE10G17   29.64F                  
BOEING FIELD   LGT RAIN  59  53  80 SE5       29.64S                  
RENTON         LGT RAIN  56  54  93 S5        29.64S FOG              
SEATAC AIRPORT RAIN      56  54  93 SE7       29.65S FOG              
JBLM-MCCHORD   LGT RAIN  56  56  99 SE12      29.64F                  
PUYALLUP       NOT AVBL                                               
JBLM-FT LEWIS  LGT RAIN  56  56  99 SE10      29.63F                  
TACOMA NARROWS RAIN      56  54  93 SE5       29.64F FOG              
$$
 
WAZ001-503-506-510-514-515-230000-
NORTH INTERIOR
  
CITY           SKY/WX    TMP DP  RH WIND       PRES   REMARKS
BELLINGHAM     CLOUDY    58  50  75 SE9       29.60F                  
FRIDAY HARBOR  CLOUDY    55  52  89 E10       29.59F                  
EASTSOUND      CLOUDY    57  54  88 S7        29.57F                  
PORT ANGELES     N/A    N/A N/A N/A MISG      29.59F                  
NAS WHIDBEY    LGT RAIN  58  54  86 SE16G24   29.60F                  
BURLINGTON     CLOUDY   N/A N/A N/A E12       29.63F                  
$$
 
WAZ020-022-039-040-504-511-512-230000-
SOUTHWEST INTERIOR
  
CITY           SKY/WX    TMP DP  RH WIND       PRES   REMARKS
SHELTON        RAIN      56  54  93 SE7       29.60F FOG              
OLYMPIA        LGT RAIN  56  53  90 S12       29.63F FOG              
CHEHALIS       LGT RAIN  57  55  94 S12G18    29.63F                  
KELSO          CLOUDY    57  52  82 S9G17     29.72S                  
VANCOUVER      HVY RAIN  56  55  97 CALM      29.72R FOG              
SCAPPOOSE, OR  LGT RAIN  56  54  93 S3        29.70R                  
PORTLAND, OR   RAIN      57  56  96 SE7       29.71S FOG              
$$
 
WAZ021-516-517-230000-
WASHINGTON COAST
  
CITY           SKY/WX    TMP DP  RH WIND       PRES   REMARKS
FORKS          RAIN      56  54  93 SE5       29.55F FOG              
HOQUIAM        LGT RAIN  57  56  96 SE9       29.58F FOG              
ASTORIA, OR    LGT RAIN  58  54  86 S5        29.61S                  
$$
 
WAZ019-023-024-040-518-519-230000-
CASCADE MOUNTAINS AND COLUMBIA GORGE
  
CITY           SKY/WX    TMP DP  RH WIND       PRES   REMARKS
STAMPEDE PASS  NOT AVBL                                               
TROUTDALE, OR  RAIN      56  54  93 E6        29.70F FOG              
THE DALLES, OR CLOUDY    57  52  83 NW3       29.71S                  
$$

WAZ026-027-041>044-520-521-230000-
EAST SLOPES
  
CITY           SKY/WX    TMP DP  RH WIND       PRES   REMARKS
OMAK           LGT RAIN  50  48  93 S7        29.76F                  
WENATCHEE      LGT RAIN  51  45  79 W3        29.74F                  
ELLENSBURG     LGT RAIN  55  50  83 SE6       29.72F                  
YAKIMA         LGT RAIN  58  50  75 CALM      29.72F                  
$$

WAZ028-034-035-230000-
COLUMBIA BASIN
  
CITY           SKY/WX    TMP DP  RH WIND       PRES   REMARKS
EPHRATA        LGT RAIN  54  52  93 CALM      29.75F                  
MOSES LAKE     LGT RAIN  55  52  89 S7        29.76F                  
PASCO          CLOUDY    69  48  47 SW5       29.73F                  
HERMISTON, OR  LGT RAIN  70  47  43 W7        29.73F                  
$$

WAZ036>038-230000-
NORTHEAST WASHINGTON
  
CITY           SKY/WX    TMP DP  RH WIND       PRES   REMARKS
SPOKANE GEIGER LGT RAIN  54  49  83 W5        29.84F                  
SPOKANE FELTS  CLOUDY    60  42  51 S9        29.84F                  
FAIRCHILD AFB  LGT RAIN  53  49  86 SW2       29.84F                  
COEURDALENE,ID CLOUDY    57  39  51 S7        29.84F                  
DEER PARK      LGT RAIN  49  48  97 NE3       29.86F                  
$$

WAZ029>033-230000-
SOUTHEAST WASHINGTON
  
CITY           SKY/WX    TMP DP  RH WIND       PRES   REMARKS
PULLMAN        CLOUDY    62  36  37 SE13      29.86F                  
LEWISTON, ID   PTSUNNY   66  41  40 E8        29.82F                  
WALLA WALLA    CLOUDY    72  36  26 S22G29    29.76F                  
PENDLETON, OR  CLOUDY    67  42  40 S16       29.74F                  
$$